Wind_Speed
37 31 28 26 19 13 6 2 2 8 12 17 23 30 40 43 35 37 59 51 39 45 43 53 56 55 48 49 49 52 52 50 48 48 47 46 44 43 40 40 38 36 33 33
35 34 29 26 23 17 12 8 4 4 11 15 20 26 31 39 47 39 32 59 54 44 48 48 55 54 54 51 51 51 52 51 50 50 49 49 48 47 45 44 42 41 40 38
36 32 31 26 24 22 16 12 7 1 8 12 12 20 27 33 39 43 35 43 47 50 34 50 53 54 57 54 53 51 52 52 52 53 53 52 51 49 47 47 46 44 44 43
39 34 29 29 27 22 20 16 11 6 2 8 12 17 24 25 31 34 47 49 52 57 56 35 51 53 50 54 53 55 54 55 56 56 56 55 53 50 51 50 47 46 46 46
34 33 31 25 25 25 20 16 12 10 4 4 8 13 25 25 25 37 39 42 43 46 51 50 42 43 50 50 60 62 62 60 60 60 59 57 55 53 55 52 50 49 50 49
37 32 32 30 28 22 20 18 14 11 8 4 7 9 17 24 22 26 33 38 38 42 40 47 60 49 47 51 54 59 62 62 62 62 60 59 56 57 54 54 53 54 53 53
34 34 33 32 29 27 23 17 17 16 12 9 6 11 16 20 25 27 29 33 30 35 39 36 43 55 54 53 48 57 61 66 62 63 61 60 62 59 59 59 57 58 59 59
37 37 35 34 33 28 25 24 20 17 16 13 10 8 16 21 23 27 30 33 33 31 34 36 38 41 52 55 65 46 53 58 68 64 61 63 64 62 62 63 57 59 58 58
36 31 28 29 31 30 26 25 21 15 14 10 12 10 10 16 24 28 30 33 35 33 34 35 36 39 40 42 56 67 42 61 63 59 67 68 67 64 64 63 61 61 59 59
37 29 29 27 27 26 28 27 22 20 17 13 11 11 13 12 15 25 31 33 35 36 35 35 36 39 38 37 39 52 64 45 52 61 71 70 68 71 71 66 65 62 59 61
36 30 27 30 27 27 27 29 29 21 19 18 11 10 13 14 15 15 23 34 37 37 38 38 37 39 40 37 37 38 41 43 48 47 45 64 62 60 61 66 68 66 54 51
39 35 30 26 24 27 26 24 25 28 22 21 19 13 13 18 19 16 15 19 28 35 40 41 42 41 41 41 38 38 40 40 39 43 46 50 66 57 59 55 54 54 63 53
35 34 33 31 29 27 27 27 24 22 23 19 22 15 17 19 19 17 15 13 14 19 28 33 37 41 45 46 44 41 40 42 44 42 43 43 51 62 49 48 40 41 39 46
35 28 30 27 27 29 26 22 26 31 29 28 21 18 22 24 23 26 26 22 20 23 27 32 36 39 38 41 45 47 46 44 46 48 50 46 43 46 48 48 46 50 44 56
32 25 29 15 26 25 22 22 22 31 30 33 27 29 27 25 29 26 27 30 26 23 26 31 33 36 38 36 37 40 44 46 48 48 51 51 53 53 49 47 50 50 54 50
25 24 28 21 23 26 15 19 26 30 31 33 34 26 29 28 28 31 29 28 30 28 25 26 32 34 35 36 36 37 39 44 47 48 49 50 51 54 57 59 60 60 63 59
31 32 32 32 32 38 24 22 24 26 28 32 34 30 35 33 32 34 33 31 31 32 30 28 29 34 35 35 36 36 38 40 43 44 45 47 49 51 54 55 56 57 61 57
29 31 36 41 44 46 46 42 37 35 35 29 37 37 39 39 37 36 37 34 33 33 34 34 32 32 35 36 37 37 36 36 38 41 42 42 43 45 48 48 44 53 56 55
32 36 41 45 46 48 47 48 44 41 40 40 40 42 43 43 45 41 43 37 37 35 36 36 38 38 37 37 38 40 39 36 36 36 36 37 38 39 39 37 39 43 47 50
47 49 50 46 48 50 47 46 47 47 49 52 53 48 43 43 46 45 47 43 37 37 37 36 38 39 40 40 40 40 42 41 41 41 41 42 41 42 44 49 52 54 57 56
51 52 53 52 55 55 53 54 54 52 53 52 52 50 50 49 48 45 44 47 43 39 39 38 40 42 40 41 43 43 44 43 45 46 46 46 47 49 49 49 50 52 53 54
55 57 58 58 60 62 61 59 57 60 58 57 56 58 57 55 54 53 53 53 51 45 45 43 41 45 46 44 43 43 44 46 47 48 49 51 52 52 54 55 54 55 55 54
56 57 59 60 61 62 62 65 66 67 67 64 63 63 64 63 60 58 58 58 57 55 50 49 47 46 48 46 46 46 42 43 46 49 52 52 53 53 53 53 53 54 50 47
60 63 66 68 65 65 65 66 67 68 70 70 70 71 72 71 69 65 65 64 63 60 59 54 52 49 48 48 46 44 45 43 43 46 48 47 50 53 52 51 49 44 43 44
67 68 70 70 71 70 70 72 74 73 73 75 73 73 75 77 76 77 74 70 68 68 65 60 56 53 50 48 46 43 42 43 43 44 45 45 45 44 42 40 36 36 39 40
71 71 71 71 72 74 71 72 74 75 73 73 75 73 71 71 70 72 76 74 73 72 70 68 61 57 52 51 48 44 40 39 40 41 42 41 41 40 36 32 32 37 40 40
Wind_Direction
24 29 27 25 20 21 45 48 256 227 198 202 206 221 210 219 230 226 226 226 221 222 233 221 222 214 214 219 222 224 221 221 223 223 224 226 230 233 239 244 250 255 256 266
21 25 25 26 25 20 22 14 0 222 192 187 195 218 228 234 209 203 224 227 233 223 234 217 222 221 214 219 221 225 225 223 223 225 228 229 231 235 238 244 249 254 259 260
22 23 23 21 27 27 23 23 29 52 200 194 186 219 230 241 243 252 232 215 224 221 231 210 221 226 219 220 220 224 226 226 227 226 229 231 232 238 241 244 249 253 259 262
21 23 22 20 25 24 24 24 24 34 274 197 182 212 233 243 248 246 243 241 229 229 229 225 227 231 224 226 224 224 227 227 228 229 229 230 232 234 242 245 248 256 258 262
14 20 25 25 22 20 21 17 16 22 11 291 205 201 231 241 246 247 252 250 252 257 257 242 216 230 230 227 228 226 225 225 227 230 231 231 232 235 240 242 247 252 255 258
11 12 16 21 21 17 18 21 10 6 355 324 278 230 227 238 244 251 254 255 255 261 262 260 239 238 229 237 239 234 230 229 228 229 232 235 235 237 239 241 245 248 253 257
2 5 9 12 14 17 18 14 17 21 8 1 306 261 252 238 238 241 248 252 247 252 256 255 260 257 239 237 243 249 243 232 230 230 232 236 239 240 241 242 246 251 253 255
354 355 356 359 4 8 8 15 19 9 12 2 346 307 260 255 245 241 246 251 253 246 250 251 254 261 265 261 257 253 249 247 238 230 234 237 242 242 243 245 248 252 255 258
344 351 349 346 355 357 1 5 8 13 6 6 355 328 292 258 253 252 248 248 253 254 250 255 257 259 260 265 272 262 253 234 237 239 235 239 242 242 243 247 249 251 255 260
338 348 346 343 342 347 349 350 351 0 7 0 349 329 313 297 270 257 252 253 253 255 255 252 254 260 263 265 264 273 259 257 238 243 240 238 241 244 247 247 249 249 253 265
333 339 344 341 338 335 344 338 344 350 349 347 2 318 327 319 317 281 264 261 256 256 258 257 253 254 257 257 263 264 265 280 273 245 253 247 242 247 251 249 250 256 257 262
329 330 336 338 335 327 335 336 329 330 335 339 330 329 303 301 312 313 299 278 270 266 266 265 261 257 255 258 255 254 253 259 265 267 270 257 246 248 252 249 247 247 250 260
323 328 331 337 334 330 337 336 324 318 325 329 322 317 318 298 299 303 307 297 285 274 264 261 260 259 256 255 254 252 250 249 247 248 256 266 247 248 257 257 260 257 268 263
317 322 320 323 320 322 332 333 317 316 326 321 331 320 304 301 299 296 297 295 274 275 279 277 266 256 253 251 254 255 251 247 247 244 242 242 247 255 260 256 261 260 263 263
307 314 307 320 309 312 329 323 312 315 315 316 319 326 299 301 298 293 289 292 292 272 271 278 279 273 258 252 252 249 250 252 250 247 246 245 242 242 249 259 256 263 254 269
303 307 303 316 304 301 308 299 311 309 314 316 314 315 304 308 300 296 293 290 289 289 276 271 281 281 272 260 252 253 253 250 250 253 255 252 250 250 246 244 246 250 254 261
309 309 308 313 313 311 307 294 296 295 300 301 300 307 303 300 300 301 298 290 289 286 284 274 274 280 277 266 261 253 250 252 251 252 254 255 257 257 257 255 257 256 253 267
303 302 305 307 311 308 307 308 306 299 298 297 292 295 293 293 294 292 290 291 290 288 286 283 272 270 275 272 264 258 255 253 255 252 251 251 252 256 259 261 261 261 266 272
297 297 299 301 301 301 301 302 302 300 295 292 284 283 283 284 285 287 285 284 285 285 283 282 282 273 268 267 267 264 257 252 252 254 254 252 252 250 256 259 257 247 246 249
306 305 304 305 302 301 302 300 298 297 301 297 297 294 289 284 281 282 283 283 278 279 280 281 277 276 274 269 263 261 262 258 254 251 251 250 249 247 245 243 243 246 252 256
303 303 302 303 298 296 296 295 295 296 291 289 290 289 289 286 282 280 279 280 280 277 274 274 275 274 270 270 269 265 260 259 257 255 253 251 253 254 254 258 259 259 261 262
300 298 299 297 295 296 295 296 293 287 288 289 288 288 286 284 284 285 284 283 282 277 274 271 270 272 272 269 263 265 264 261 259 259 258 258 257 256 255 256 258 260 263 266
295 293 291 287 287 287 290 289 291 292 292 289 286 283 282 282 281 280 276 275 275 276 273 272 272 267 270 271 268 263 262 262 262 262 261 259 261 261 262 262 263 264 263 260
292 289 288 288 289 288 286 284 283 284 283 283 281 282 282 280 279 276 275 275 274 273 274 270 268 268 267 269 269 266 262 264 260 255 257 259 261 261 261 260 260 261 259 259
287 287 286 287 287 287 286 284 283 282 280 278 278 277 276 276 275 275 273 271 270 270 270 270 270 266 264 264 266 267 265 261 262 260 259 259 258 257 257 259 260 257 257 261
288 287 287 287 287 287 286 284 283 283 281 280 280 279 278 278 275 272 271 269 268 267 267 267 265 264 262 258 259 263 265 259 256 256 256 255 255 255 256 251 253 253 257 262
Height
5689 5683 5680 5675 5672 5669 5666 5666 5666 5666 5670 5675 5680 5687 5693 5696 5698 5704 5716 5724 5732 5737 5734 5746 5753 5758 5765 5771 5777 5782 5785 5791 5796 5800 5803 5807 5810 5812 5815 5818 5820 5821 5823 5824
5694 5687 5682 5679 5675 5673 5670 5668 5669 5669 5670 5674 5678 5686 5691 5695 5699 5702 5710 5720 5726 5732 5735 5739 5745 5751 5757 5762 5768 5774 5779 5784 5788 5792 5796 5800 5802 5805 5809 5811 5813 5814 5815 5816
5697 5691 5687 5683 5678 5676 5674 5672 5671 5672 5673 5674 5678 5687 5692 5696 5699 5698 5705 5713 5718 5724 5727 5731 5740 5746 5749 5755 5760 5767 5771 5776 5780 5783 5787 5790 5794 5799 5801 5803 5805 5806 5808 5809
5701 5696 5691 5687 5682 5679 5677 5675 5674 5673 5675 5676 5678 5683 5688 5692 5697 5700 5702 5708 5711 5713 5722 5731 5737 5741 5746 5748 5752 5757 5763 5765 5769 5773 5777 5780 5784 5788 5791 5794 5796 5798 5800 5801
5708 5702 5696 5692 5688 5683 5681 5678 5677 5676 5676 5677 5679 5683 5685 5689 5691 5696 5699 5704 5710 5713 5717 5723 5727 5731 5738 5739 5743 5746 5750 5753 5758 5763 5767 5770 5774 5778 5781 5785 5787 5789 5790 5791
5710 5705 5700 5695 5691 5688 5684 5682 5678 5677 5677 5678 5678 5681 5680 5684 5690 5693 5698 5702 5707 5709 5714 5716 5720 5725 5728 5731 5735 5739 5743 5747 5749 5752 5758 5762 5765 5768 5771 5774 5776 5777 5779 5780
5712 5706 5702 5698 5693 5690 5686 5684 5681 5679 5677 5678 5678 5679 5680 5682 5687 5690 5692 5696 5705 5706 5709 5714 5714 5715 5720 5723 5727 5729 5733 5737 5741 5745 5748 5753 5756 5759 5761 5763 5765 5767 5768 5769
5709 5704 5700 5697 5694 5690 5687 5684 5682 5680 5679 5678 5677 5676 5677 5680 5683 5686 5689 5692 5695 5701 5703 5707 5710 5711 5714 5715 5716 5720 5725 5728 5730 5736 5739 5742 5746 5749 5751 5754 5755 5757 5758 5759
5710 5707 5703 5698 5695 5691 5687 5685 5684 5683 5680 5678 5677 5676 5675 5676 5678 5681 5684 5686 5688 5692 5695 5697 5700 5703 5706 5707 5708 5710 5716 5717 5721 5725 5728 5732 5736 5739 5740 5743 5745 5746 5748 5750
5709 5706 5701 5698 5695 5692 5687 5684 5683 5681 5679 5678 5676 5674 5673 5673 5674 5674 5676 5678 5681 5684 5687 5691 5693 5694 5696 5697 5699 5698 5705 5710 5712 5714 5717 5720 5723 5726 5728 5730 5732 5734 5736 5738
5706 5705 5703 5695 5691 5688 5687 5680 5677 5679 5678 5676 5675 5673 5671 5670 5670 5670 5670 5671 5672 5675 5676 5680 5683 5686 5688 5691 5690 5693 5696 5696 5701 5704 5707 5710 5713 5715 5718 5719 5722 5724 5726 5726
5702 5698 5696 5695 5691 5686 5685 5681 5677 5674 5676 5674 5672 5673 5669 5667 5666 5666 5665 5665 5664 5667 5668 5670 5672 5674 5676 5677 5681 5684 5684 5687 5689 5693 5696 5701 5702 5706 5709 5709 5712 5712 5712 5713
5696 5693 5688 5686 5687 5684 5681 5678 5675 5674 5672 5672 5669 5670 5665 5665 5664 5664 5662 5661 5659 5657 5657 5657 5658 5661 5665 5667 5669 5672 5674 5676 5677 5682 5685 5686 5691 5692 5696 5696 5698 5699 5699 5700
5689 5690 5688 5685 5681 5678 5677 5677 5671 5667 5667 5665 5665 5665 5661 5657 5658 5657 5655 5654 5655 5652 5648 5646 5647 5648 5649 5652 5655 5658 5662 5666 5668 5668 5671 5673 5677 5679 5682 5681 5685 5687 5686 5688
5685 5682 5678 5682 5675 5674 5675 5671 5669 5664 5663 5658 5662 5659 5653 5652 5648 5648 5647 5646 5646 5647 5645 5640 5637 5636 5638 5639 5640 5643 5646 5650 5653 5655 5657 5660 5663 5665 5668 5671 5673 5670 5672 5671
5679 5677 5671 5674 5672 5667 5671 5668 5664 5661 5658 5654 5651 5654 5648 5647 5645 5641 5639 5638 5636 5636 5636 5635 5631 5628 5628 5629 5630 5630 5633 5635 5637 5639 5642 5646 5648 5651 5653 5656 5658 5659 5658 5658
5670 5667 5665 5665 5664 5660 5665 5664 5660 5657 5654 5650 5646 5645 5639 5638 5637 5635 5632 5629 5627 5625 5625 5625 5624 5621 5620 5620 5620 5622 5622 5623 5624 5626 5629 5632 5634 5637 5640 5641 5643 5645 5645 5642
5666 5664 5660 5655 5654 5651 5649 5647 5648 5649 5644 5644 5635 5633 5630 5627 5625 5625 5623 5622 5619 5616 5615 5614 5614 5613 5612 5612 5611 5611 5612 5615 5616 5616 5618 5619 5621 5623 5626 5628 5631 5632 5633 5632
5660 5656 5653 5650 5647 5643 5641 5638 5636 5633 5633 5630 5626 5622 5619 5618 5615 5615 5610 5612 5611 5608 5605 5603 5602 5602 5602 5601 5601 5600 5602 5603 5604 5606 5606 5607 5610 5611 5613 5615 5617 5618 5617 5616
5644 5641 5639 5638 5632 5630 5628 5625 5623 5621 5618 5611 5609 5609 5608 5607 5604 5603 5597 5598 5599 5597 5596 5594 5591 5590 5589 5589 5590 5590 5589 5591 5592 5593 5595 5597 5598 5599 5601 5603 5605 5605 5605 5605
5634 5629 5625 5623 5618 5616 5614 5611 5609 5607 5605 5599 5598 5595 5593 5590 5588 5588 5587 5584 5583 5584 5582 5582 5579 5577 5576 5576 5576 5576 5578 5579 5579 5581 5582 5583 5585 5587 5589 5590 5591 5592 5593 5593
5622 5615 5612 5606 5602 5600 5595 5594 5592 5584 5584 5582 5582 5579 5577 5577 5576 5574 5572 5570 5568 5569 5568 5567 5566 5564 5562 5563 5563 5562 5563 5565 5567 5568 5569 5570 5572 5574 5574 5575 5577 5578 5579 5579
5609 5602 5599 5593 5590 5584 5582 5574 5574 5570 5566 5566 5563 5561 5558 5557 5556 5555 5552 5550 5549 5550 5552 5551 5552 5551 5549 5549 5549 5549 5551 5552 5552 5553 5554 5556 5558 5559 5560 5562 5563 5565 5566 5563
5591 5585 5577 5572 5575 5571 5565 5561 5556 5552 5549 5546 5542 5539 5536 5533 5534 5535 5534 5533 5532 5532 5531 5534 5534 5536 5535 5534 5535 5536 5537 5538 5539 5540 5541 5542 5543 5545 5546 5548 5549 5549 5548 5548
5569 5566 5560 5555 5549 5551 5546 5538 5532 5529 5525 5521 5520 5516 5513 5510 5510 5507 5508 5510 5511 5510 5510 5513 5514 5517 5519 5519 5520 5521 5523 5524 5525 5526 5527 5528 5529 5531 5533 5534 5534 5534 5534 5534
5549 5544 5540 5538 5530 5523 5525 5518 5509 5504 5503 5498 5491 5492 5489 5483 5481 5483 5482 5484 5485 5487 5487 5489 5493 5496 5499 5502 5505 5506 5509 5509 5511 5512 5514 5515 5515 5517 5520 5520 5520 5520 5521 5523